Terug naar catalogus

STARLINK-31042

ActiefCommunicatieVLEO
NORAD 58739·PAYLOAD·🇺🇸 United States

Gelanceerd Jan 7, 2024 vanaf Cape Canaveral Space Force Station

Loading…

Volgende Passages (komende 24 uur)

TLE

VersSource: CelesTrak SupGP

Epoch: Sep 15, 2026, 03:14 UTC

1 58739C 24005M   26258.13520833 -.00068939  00000+0 -24974-2 0  2583
2 58739  43.0030 229.8542 0001293 271.6303 210.0869 15.27607185    12

Volg STARLINK-31042 in realtime met AllMySat

Download on the App Store